Milwaukee Timmerman, WI

6:51 AM CDT on August 17, 2019 (GMT -0500)
Timmerman

Weather History for KMWC - July, 2019

Change the Weather History Date:

Monday, July 22, 2019

  Actual Average Record
Temperature  
Mean Temperature 66 °F -  
Max Temperature 73 °F 83 °F 97 °F (1983)
Min Temperature 60 °F 63 °F 51 °F (2007)
Cooling Degree Days 2    
Growing Degree Days 16 (Base 50)    
Moisture  
Dew Point 49 °F    
Average Humidity 55    
Maximum Humidity 73    
Minimum Humidity 36    
Precipitation  
Precipitation 0.00 in - - ()
Sea Level Pressure  
Sea Level Pressure 30.08 in    
Wind  
Wind Speed 8 mph (NNE)    
Max Wind Speed 16 mph    
Max Gust Speed 24 mph    
Visibility 10 miles    
Events      
Averages and records for this station are not official NWS values.
T = Trace of Precipitation, MM = Missing Value Source: NWS Daily Summary

Daily Weather History Graph

Daily Weather History Graph

Search for Another Location

Airport or City:

Astronomy

Jul. 22, 2019 Rise Set
Actual Time 5:32 AM CDT 8:24 PM CDT
Civil Twilight 4:58 AM CDT 8:57 PM CDT
Nautical Twilight 4:16 AM CDT 9:39 PM CDT
Astronomical Twilight 3:26 AM CDT 10:28 PM CDT
Moon 11:36 PM CDT (7/22) 10:56 AM CDT (7/22)
Length of Visible Light 15h 58m
Length of Day
14h 51m
Waning Gibbous, 72% of the Moon is Illuminated
Jul 22
Waning Gibbous
Jul 24
Last Quarter
Jul 31
New
Aug 7
First Quarter
Aug 15
Full

Hourly Weather History & Observations

Time (CDT) Temp. Dew Point Humidity Pressure Visibility Wind Dir Wind Speed Gust Speed Precip Events Conditions
12:15 AM 64.4 °F 55.4 °F 73% 30.04 in 10.0 mi North 6.9 mph - N/A   Clear
12:35 AM 64.4 °F 55.4 °F 73% 30.04 in 10.0 mi NNE 6.9 mph - N/A   Clear
12:55 AM 64.4 °F 55.4 °F 73% 30.04 in 10.0 mi NNE 4.6 mph - N/A   Clear
1:15 AM 64.4 °F 55.4 °F 73% 30.03 in 10.0 mi NNE 9.2 mph - N/A   Scattered Clouds
1:35 AM 64.4 °F 53.6 °F 68% 30.04 in 10.0 mi NNE 10.4 mph - N/A   Scattered Clouds
1:55 AM 64.4 °F 53.6 °F 68% 30.04 in 10.0 mi NNE 10.4 mph - N/A   Mostly Cloudy
2:15 AM 64.4 °F 53.6 °F 68% 30.04 in 10.0 mi NNE 10.4 mph - N/A   Overcast
2:35 AM 64.4 °F 53.6 °F 68% 30.05 in 10.0 mi NNE 9.2 mph - N/A   Overcast
2:55 AM 64.4 °F 53.6 °F 68% 30.05 in 10.0 mi NNE 9.2 mph - N/A   Mostly Cloudy
3:15 AM 64.4 °F 51.8 °F 64% 30.05 in 10.0 mi NE 11.5 mph - N/A   Mostly Cloudy
3:35 AM 64.4 °F 50.0 °F 59% 30.05 in 10.0 mi NNE 10.4 mph - N/A   Overcast
3:55 AM 64.4 °F 50.0 °F 59% 30.06 in 10.0 mi NNE 8.1 mph 16.1 mph N/A   Overcast
4:15 AM 64.4 °F 50.0 °F 59% 30.05 in 10.0 mi NNE 8.1 mph - N/A   Overcast
4:35 AM 62.6 °F 50.0 °F 63% 30.05 in 10.0 mi NNE 10.4 mph - N/A   Overcast
4:55 AM 62.6 °F 50.0 °F 63% 30.06 in 10.0 mi NNE 9.2 mph - N/A   Overcast
5:15 AM 62.6 °F 46.4 °F 55% 30.06 in 10.0 mi North 12.7 mph 17.3 mph N/A   Overcast
5:35 AM 62.6 °F 46.4 °F 55% 30.07 in 10.0 mi NNE 8.1 mph - N/A   Mostly Cloudy
5:55 AM 62.6 °F 46.4 °F 55% 30.08 in 10.0 mi North 6.9 mph - N/A   Mostly Cloudy
6:15 AM 62.6 °F 48.2 °F 59% 30.09 in 10.0 mi North 9.2 mph - N/A   Mostly Cloudy
6:35 AM 62.6 °F 46.4 °F 55% 30.09 in 10.0 mi North 12.7 mph - N/A   Mostly Cloudy
6:55 AM 62.6 °F 46.4 °F 55% 30.09 in 10.0 mi North 8.1 mph - N/A   Scattered Clouds
7:00 AM 62.6 °F 48.2 °F 59% 30.09 in 10.0 mi North 8.1 mph - N/A   Scattered Clouds
7:15 AM 62.6 °F 46.4 °F 55% 30.09 in 10.0 mi North 8.1 mph - N/A   Mostly Cloudy
7:45 AM 64.4 °F 46.4 °F 52% 30.11 in 10.0 mi North 6.9 mph - N/A   Overcast
8:45 AM 66.2 °F 44.6 °F 46% 30.11 in 10.0 mi NNE 13.8 mph - N/A   Clear
9:45 AM 69.8 °F 44.6 °F 40% 30.11 in 10.0 mi North 9.2 mph - N/A   Clear
10:45 AM 69.8 °F 42.8 °F 38% 30.11 in 10.0 mi North 10.4 mph 18.4 mph N/A   Clear
11:45 AM 71.6 °F 44.6 °F 38% 30.11 in 10.0 mi North 8.1 mph 24.2 mph N/A   Clear
12:45 PM 73.4 °F 44.6 °F 36% 30.10 in 10.0 mi North 16.1 mph 20.7 mph N/A   Scattered Clouds
1:45 PM 73.4 °F 46.4 °F 38% 30.09 in 10.0 mi NE 10.4 mph 17.3 mph N/A   Mostly Cloudy
2:45 PM 73.4 °F 46.4 °F 38% 30.10 in 10.0 mi NE 6.9 mph - N/A   Scattered Clouds
3:45 PM 73.4 °F 46.4 °F 38% 30.10 in 10.0 mi NE 8.1 mph - N/A   Scattered Clouds
4:45 PM 73.4 °F 44.6 °F 36% 30.10 in 10.0 mi ENE 5.8 mph - N/A   Scattered Clouds
5:45 PM 73.4 °F 44.6 °F 36% 30.09 in 10.0 mi ENE 5.8 mph - N/A   Clear
6:45 PM 73.4 °F 44.6 °F 36% 30.10 in 10.0 mi NE 5.8 mph - N/A   Clear
7:45 PM 71.6 °F 46.4 °F 41% 30.10 in 10.0 mi Calm Calm - N/A   Clear
8:45 PM 66.2 °F 48.2 °F 52% 30.10 in 10.0 mi Calm Calm - N/A   Clear
8:55 PM 64.4 °F 50.0 °F 59% 30.10 in 10.0 mi Calm Calm - N/A   Clear
9:15 PM 64.4 °F 50.0 °F 59% 30.10 in 10.0 mi Calm Calm - N/A   Clear
9:35 PM 64.4 °F 48.2 °F 56% 30.10 in 10.0 mi Calm Calm - N/A   Clear
9:55 PM 64.4 °F 48.2 °F 56% 30.10 in 10.0 mi Calm Calm - N/A   Clear
10:15 PM 62.6 °F 48.2 °F 59% 30.10 in 10.0 mi WSW 3.5 mph - N/A   Clear
10:35 PM 62.6 °F 48.2 °F 59% 30.10 in 10.0 mi WSW 3.5 mph - N/A   Clear
10:55 PM 62.6 °F 48.2 °F 59% 30.10 in 10.0 mi WSW 4.6 mph - N/A   Scattered Clouds
11:15 PM 60.8 °F 48.2 °F 63% 30.10 in 10.0 mi WSW 3.5 mph - N/A   Scattered Clouds
11:35 PM 62.6 °F 48.2 °F 59% 30.10 in 10.0 mi West 6.9 mph - N/A   Scattered Clouds
11:55 PM 62.6 °F 48.2 °F 59% 30.10 in 10.0 mi West 5.8 mph - N/A   Scattered Clouds